DMC3-FM2

Last updated on Thu Nov 21 2024 00:02:33 GMT+0000 (Coordinated Universal Time)

1 40716U 15032B 24325.61739555 .00001482 00000+0 18234-3 0 9991 2 40716 97.7298 200.9677 0008395 135.8832 224.3053 14.84403943504770
UTC large
Height (km)
Speed (km/s)
/
Latitude / Longitude
Inclination (degrees)
Orbital Period (minutes)
Azimuth
Elevation
Range (km)
Doppler Factor

Next 0 passes for location: London (51.5072 / 0.1276)

Sorry there are no passes over London.